Main page
METAR-TAF:

METAR-TAF

Airports :

Varna Airport

Varna, Bulgaria

latitude: 43-12N, longitude: 027-55E, elevation: 41 m

Current weather observation

The report was made 1 hour and 9 minutes ago, at 03:30 UTC
Wind 2 kt from the Northwest
Temperature 6°C
Humidity 87%
Pressure 1019 hPa
Visibility: 8000 m

METAR: LBWN 250330Z AUTO 31002KT 8000 NCD 06/04 Q1019 TEMPO 5000 BR

Time: 07:39 (04:39 UTC)

Forecast

The report was made 5 hours and 39 minutes ago, at 23:00 UTC
Forecast valid from 25 at 00 UTC to 25 at 24 UTC
Wind 4 kt from variable directions
Visibility 10 km or more
no clouds below 1500 m and no cumulonimbus
Becoming
from 25 at 10 UTC to 25 at 12 UTC
Wind 12 kt from the Southeast
Becoming
from 25 at 18 UTC to 25 at 20 UTC
Wind 4 kt from variable directions

TAF: LBWN 242300Z 2500/2524 VRB04KT CAVOK BECMG 2510/2512 13012KT BECMG 2518/2520 VRB04KT

Weather observations and forecasts of more than 4000 airports (METAR and TAF reports).

The available stations are represented by yellow and red dots on the map.

Hover mouse over dot to see the name of the station.

Then click to see weather observations and forecasts.

To change the map : click on the green buttons with a black cross to zoom in, on the green button with a dash to zoom out, or on the green arrows for adjacent maps.


METAR-TAF: